Weather History for Cancun, Mexico

Change the Weather History Date:

Friday, February 1, 2013

  Actual Average Record
Temperature  
Mean Temperature 73 °F -  
Max Temperature 75 °F 82 °F 87 °F (1999)
Min Temperature 71 °F 64 °F 57 °F (1997)
Cooling Degree Days 8    
Growing Degree Days 23 (Base 50)    
Moisture  
Dew Point 65 °F    
Average Humidity 78    
Maximum Humidity 94    
Minimum Humidity 69    
Precipitation  
Precipitation 0.05 in - - ()
Sea Level Pressure  
Sea Level Pressure 30.15 in    
Wind  
Wind Speed 7 mph ()    
Max Wind Speed 14 mph    
Max Gust Speed -    
Visibility 6.5 miles    
Events Rain    
Averages and records for this station are not official NWS values.
T = Trace of Precipitation, MM = Missing Value Source: Averaged Metar Reports

Daily Weather History Graph

Daily Weather History Graph

Search for Another Location

Airport:

Trip Planner

Search our weather history database for the weather conditions in past years. The results will help you decide how hot, cold, wet, or windy it might be!

Date:

Astronomy

Feb. 01, 2013 Rise Set
Actual Time 6:24 AM CST 5:38 PM CST
Civil Twilight 6:01 AM CST 6:01 PM CST
Nautical Twilight 5:34 AM CST 6:27 PM CST
Astronomical Twilight 5:08 AM CST 6:54 PM CST
Moon 10:49 PM CST (2/1) 9:47 AM CST (2/1)
Length of Visible Light 12h 00m
Length of Day
11h 13m
Waning Gibbous, 70% of the Moon is Illuminated
Feb 1
Waning Gibbous
Feb 3
Last Quarter
Feb 10
New
Feb 17
First Quarter
Feb 25
Full

Hourly Weather History & Observations

Time (CST) Temp. Dew Point Humidity Pressure Visibility Wind Dir Wind Speed Gust Speed Precip Events Conditions
12:45 AM 71.6 °F 69.8 °F 94% 30.12 in 6.0 mi NNE 5.8 mph - N/A Rain Light Rain
1:44 AM 71.6 °F 68.0 °F 88% 30.12 in 6.0 mi East 5.8 mph - N/A   Overcast
2:46 AM 71.6 °F 68.0 °F 88% 30.10 in 6.0 mi NNE 5.8 mph - N/A   Overcast
3:45 AM 71.6 °F 68.0 °F 88% 30.11 in 6.0 mi ENE 12.7 mph - N/A   Overcast
4:44 AM 71.6 °F 68.0 °F 88% 30.12 in 6.0 mi NNE 5.8 mph - N/A   Overcast
5:43 AM 71.6 °F 66.2 °F 83% 30.12 in 6.0 mi NE 9.2 mph - N/A   Mostly Cloudy
6:42 AM 71.6 °F 68.0 °F 88% 30.16 in 6.0 mi NNE 9.2 mph - N/A   Mostly Cloudy
7:44 AM 73.4 °F 66.2 °F 78% 30.18 in 6.0 mi NE 10.4 mph - N/A Rain Light Rain
8:09 AM 73.4 °F 66.2 °F 78% 3.01 in 6.0 mi NE 9.2 mph - N/A   Overcast
8:47 AM 73.4 °F 66.2 °F 78% 30.18 in 6.0 mi NE 10.4 mph - N/A   Mostly Cloudy
9:43 AM 73.4 °F 66.2 °F 78% 30.21 in 6.0 mi NE 9.2 mph - N/A   Overcast
10:43 AM 73.4 °F 66.2 °F 78% 30.21 in 6.0 mi NE 10.4 mph - N/A   Overcast
11:47 AM 75.2 °F 64.4 °F 69% 30.19 in 7.0 mi NE 13.8 mph - N/A   Overcast
12:43 PM 73.4 °F 64.4 °F 73% 30.17 in 7.0 mi NE 10.4 mph - N/A   Overcast
1:45 PM 71.6 °F 64.4 °F 78% 30.16 in 7.0 mi NE 9.2 mph - N/A   Overcast
2:43 PM 71.6 °F 62.6 °F 73% 30.13 in 7.0 mi NE 10.4 mph - N/A   Overcast
3:47 PM 71.6 °F 62.6 °F 73% 30.15 in 7.0 mi NE 6.9 mph - N/A   Overcast
4:51 PM 71.6 °F 60.8 °F 69% 30.15 in 7.0 mi NNE 9.2 mph - N/A   Overcast
5:40 PM 71.6 °F 62.6 °F 73% 30.14 in 7.0 mi North 5.8 mph - N/A   Mostly Cloudy
6:43 PM 71.6 °F 62.6 °F 73% 30.15 in 7.0 mi NE 5.8 mph - N/A   Mostly Cloudy
7:50 PM 71.6 °F 62.6 °F 73% 30.17 in 7.0 mi NE 5.8 mph - N/A   Mostly Cloudy
8:41 PM 71.6 °F 60.8 °F 69% 30.18 in 7.0 mi NE 6.9 mph - N/A   Mostly Cloudy
9:45 PM 71.6 °F 60.8 °F 69% 30.18 in 7.0 mi NE 5.8 mph - N/A   Mostly Cloudy
10:46 PM 71.6 °F 62.6 °F 73% 30.17 in 7.0 mi NE 5.8 mph - N/A   Mostly Cloudy
11:44 PM 71.6 °F 62.6 °F 73% 30.15 in 7.0 mi NE 5.8 mph - N/A   Mostly Cloudy